This is the latest recevied weather packets stored in our database for station/object KD9ZDW. If no packets are shown the sender has not sent any weather packets the latest 10 day(s).
| Time | Temp. | Humidity | Pressure | Rain* | Wind** | Luminosity | Snow |
|---|---|---|---|---|---|---|---|
| 1777385827 | 14.44° C | 78% | 1014.1 hPa | 0 mm | - | 219 W/m² | - |
| 1777385524 | 13.89° C | 80% | 1013.9 hPa | 0 mm | - | 214 W/m² | - |
| 1777385221 | 13.89° C | 78% | 1014 hPa | 0 mm | - | 183 W/m² | - |
| 1777384917 | 13.89° C | 79% | 1014 hPa | 0 mm | - | 153 W/m² | - |
| 1777384615 | 13.89° C | 79% | 1013.6 hPa | 0 mm | - | 197 W/m² | - |
| 1777384314 | 13.89° C | 79% | 1013.9 hPa | 0 mm | - | 163 W/m² | - |
| 1777384010 | 13.89° C | 79% | 1013.5 hPa | 0 mm | - | 152 W/m² | - |
| 1777383706 | 13.89° C | 79% | 1013.7 hPa | 0 mm | - | 134 W/m² | - |
| 1777383403 | 13.89° C | 80% | 1013.9 hPa | 0 mm | - | 98 W/m² | - |
| 1777383099 | 13.89° C | 80% | 1013.7 hPa | 0 mm | - | 110 W/m² | - |
| 1777382796 | 13.89° C | 80% | 1013.5 hPa | 0 mm | - | 110 W/m² | - |
| 1777382492 | 13.89° C | 80% | 1013.5 hPa | 0 mm | - | 105 W/m² | - |
| 1777382188 | 13.89° C | 79% | 1013.5 hPa | 0 mm | - | 106 W/m² | - |
| 1777381884 | 14.44° C | 80% | 1013.2 hPa | 0 mm | - | 80 W/m² | - |
| 1777381583 | 14.44° C | 79% | 1013.2 hPa | 0 mm | - | 76 W/m² | - |
| 1777381280 | 14.44° C | 79% | 1012.9 hPa | 0 mm | - | 66 W/m² | - |
| 1777380977 | 14.44° C | 79% | 1012.9 hPa | 0 mm | - | 105 W/m² | - |
| 1777380673 | 14.44° C | 81% | 1012.8 hPa | 0 mm | - | 93 W/m² | - |
| 1777380369 | 15° C | 82% | 1012.4 hPa | 0 mm | - | 81 W/m² | - |
| 1777380066 | 15° C | 82% | 1012.6 hPa | 0 mm | - | 71 W/m² | - |
| 1777379761 | 15° C | 82% | 1012.2 hPa | 0 mm | - | 70 W/m² | - |
| 1777379458 | 15° C | 83% | 1012.2 hPa | 0 mm | - | 196 W/m² | - |
| 1777379158 | 15.56° C | 82% | 1012 hPa | 0 mm | - | 130 W/m² | - |
| 1777378854 | 15.56° C | 84% | 1012.1 hPa | 0 mm | - | 65 W/m² | - |
| 1777378550 | 15.56° C | 85% | 1011.8 hPa | 0 mm | - | 60 W/m² | - |
* Rain latest hour (hover to see other rain measurements)
** Current wind speed in m/s (hover to see current wind gust speed)